This is the latest recevied weather packets stored in our database for station/object KM8V-8. If no packets are shown the sender has not sent any weather packets the latest 10 day(s).
| Time | Temp. | Humidity | Pressure | Rain* | Wind** | Luminosity | Snow |
|---|---|---|---|---|---|---|---|
| 1777994720 | 18.89° C | 63% | 1005.3 hPa | 0 mm | - | 580 W/m² | - |
| 1777994417 | 18.89° C | 63% | 1005.1 hPa | 0 mm | - | 601 W/m² | - |
| 1777994118 | 18.89° C | 63% | 1005 hPa | 0 mm | - | 628 W/m² | - |
| 1777993817 | 18.89° C | 64% | 1005 hPa | 0 mm | - | 640 W/m² | - |
| 1777993518 | 18.89° C | 63% | 1005.2 hPa | 0 mm | - | 620 W/m² | - |
| 1777993218 | 18.89° C | 64% | 1005.2 hPa | 0 mm | - | 685 W/m² | - |
| 1777992917 | 18.89° C | 64% | 1005.2 hPa | 0 mm | - | 665 W/m² | - |
| 1777992618 | 18.33° C | 65% | 1005.3 hPa | 0 mm | - | 664 W/m² | - |
| 1777992318 | 18.33° C | 65% | 1005.3 hPa | 0 mm | - | 593 W/m² | - |
| 1777992018 | 18.33° C | 65% | 1005.3 hPa | 0 mm | - | 579 W/m² | - |
| 1777991718 | 18.33° C | 66% | 1005.4 hPa | 0 mm | - | 602 W/m² | - |
| 1777991418 | 18.33° C | 67% | 1005.4 hPa | 0 mm | - | 415 W/m² | - |
| 1777991119 | 18.33° C | 66% | 1005.4 hPa | 0 mm | - | 347 W/m² | - |
| 1777990818 | 18.33° C | 66% | 1005.4 hPa | 0 mm | - | 309 W/m² | - |
| 1777990519 | 18.33° C | 66% | 1005.3 hPa | 0 mm | - | 414 W/m² | - |
| 1777989919 | 17.78° C | 69% | 1005 hPa | 0 mm | - | 434 W/m² | - |
| 1777989621 | 17.78° C | 70% | 1004.9 hPa | 0 mm | - | 477 W/m² | - |
| 1777989318 | 17.78° C | 70% | 1004.9 hPa | 0 mm | - | 527 W/m² | - |
| 1777989022 | 17.78° C | 72% | 1005.1 hPa | 0 mm | - | 503 W/m² | - |
| 1777988719 | 17.22° C | 72% | 1005.1 hPa | 0 mm | - | 495 W/m² | - |
| 1777988416 | 17.22° C | 72% | 1005.1 hPa | 0 mm | - | 505 W/m² | - |
| 1777988116 | 17.22° C | 72% | 1005.1 hPa | 0 mm | - | 497 W/m² | - |
| 1777987822 | 17.22° C | 73% | 1005 hPa | 0 mm | - | 455 W/m² | - |
| 1777987522 | 17.22° C | 73% | 1005.1 hPa | 0 mm | - | 435 W/m² | - |
| 1777987223 | 17.22° C | 73% | 1005.1 hPa | 0 mm | - | 313 W/m² | - |
* Rain latest hour (hover to see other rain measurements)
** Current wind speed in m/s (hover to see current wind gust speed)